Location: Voyageurs National Park
(48.5020°N, 92.9292°W)
Time: 09:44:15
(UTC-05:00)

CENTAUR R/B - Pass Details

Date: 19 January 2018
Orbit: 805 x 1383 km, 63.5° (Epoch: 15 May)

Event Time Altitude Azimuth Distance (km) Brightness Sun altitude
Exits shadow 03:30:28 28° 49° (NE) 1,892 4.3 -43.1°
Drops below altitude 10° 03:33:36 10° 44° (NE) 2,987 5.6 -42.6°
Sets 03:36:29 0° 42° (NE) 4,039 6.4 -42.2°
